Regional Weather Roundup
Issued by NWS

Home | Current Version | Previous Version | Text Only | Print | Product List | Glossary On
Versions: 1 2 3 4 5 6 7 8 9 10 11 12 13 14 15 16 17 18 19 20 21 22 23 24 25 26 27
000
ASUS45 KBOU 231710
RWRCO

WEATHER ROUNDUP FOR COLORADO
NATIONAL WEATHER SERVICE DENVER/BOULDER CO
1100 AM MDT WED MAY 23 2018

NOTE: "FAIR" INDICATES FEW OR NO CLOUDS BELOW 12000 FEET WITH NO
SIGNIFICANT WEATHER AND/OR OBSTRUCTIONS TO VISIBILITY.

COZ001>005-013-030-031-231800-
...NORTHWEST COLORADO...

CITY           SKY/WX    TMP DP  RH WIND       PRES   REMARKS
CRAIG          FAIR      61  46  57 VRB5      30.06F
HAYDEN         FAIR      60  47  61 W6        30.09R
MEEKER         FAIR      62  44  51 CALM      30.06F
RANGELY        FAIR      62  45  53 W3        30.03F
RABBIT EARS PA FAIR      46  27  46 S7        30.28S
STEAMBOAT SPGS FAIR      61  47  60 E5        30.07S
WALDEN         FAIR      57  36  44 S9        30.17S
$$

COZ006>008-011-231800-
...WEST CENTRAL VALLEYS...

CITY           SKY/WX    TMP DP  RH WIND       PRES   REMARKS
GRAND JUNCTION FAIR      68  40  35 CALM      30.02S
MONTROSE       FAIR      63  39  41 N8        30.07F
EAGLE          FAIR      62  37  39 CALM      30.11F
RIFLE          FAIR      67  40  37 NW6       30.04F
DELTA          FAIR      69  42  38 CALM      30.05F
NUCLA          FAIR      72  23  16 SW13G23   30.12S
$$

COZ017>023-064>068-231800-
...SOUTHWEST COLORADO...

CITY           SKY/WX    TMP DP  RH WIND       PRES   REMARKS
DURANGO        FAIR      66  26  22 VRB6      30.16F
CORTEZ         FAIR      70  22  16 SW15      30.11S
PAGOSA SPRINGS FAIR      63  18  17 W5        30.22S
TELLURIDE      FAIR      57  21  25 S9G18     30.26S
WOLF CREEK PAS FAIR      43  21  42 S14G22    30.46R
$$

COZ009-010-012-014-032>034-037-058>063-231800-
...CENTRAL COLORADO...

CITY           SKY/WX    TMP DP  RH WIND       PRES   REMARKS
ASPEN          FAIR      66  21  18 S10G23    30.12F
BUENA VISTA    PTSUNNY   63  32  30 SE12      30.18F
COPPER MTN     PTSUNNY   46  19  34 SE21G33   30.36F
BERTHOUD PASS  CLOUDY    34  27  75 SW12G21   30.41R WCI  25
COTTONWOOD PAS PTSUNNY   59  37  44 SE10G16   30.28F
GUNNISON       FAIR      62  30  29 W3        30.17F
GRANBY         FAIR      58  40  50 NE6       30.18S
KREMMLING      FAIR      54  45  71 W5        30.17F
LEADVILLE      FAIR      53  19  26 S10G30    30.25S
MONARCH PASS   PTSUNNY   45  19  36 MISG      30.48S
SALIDA         FAIR      65  29  25 S9G17     30.23S
SUNLIGHT       CLOUDY    50  27  40 S10G21    30.32S
WILKERSON PASS CLOUDY    54  27  35 S7        30.39S
$$

COZ069>075-231800-
...SAN LUIS VALLEY/SANGRE DE CRISTO MOUNTAINS...

CITY           SKY/WX    TMP DP  RH WIND       PRES   REMARKS
ALAMOSA        FAIR      66  29  24 VRB6      30.18F
DEL NORTE      FAIR      60  36  41 E9        30.21S
LA VETA PASS   FAIR      57  34  41 MISG      30.44S
SAGUACHE       NOT AVBL
$$

COZ035-036-038>040-231800-
...NORTHERN COLORADO FRONT RANGE...

CITY           SKY/WX    TMP DP  RH WIND       PRES   REMARKS
DENVER INTL AP FAIR      72  48  42 NE6       30.02F
AURORA         MOSUNNY   72  47  40 SE8       30.04F
FRONT RANGE AP MOSUNNY   72  48  43 NE5       30.04F
ERIE MUNI ARPT FAIR      71  45  39 SE8       30.06F
BOULDER MUN AP FAIR      70  46  43 NE7       30.02F
CENTENNIAL     PTSUNNY   72  47  40 SE12G17   30.04F
BROOMFIELD     MOSUNNY   70  45  40 E6        30.05F
FORT COLLINS   FAIR      68  52  56 S7        30.02F
LONGMONT       NOT AVBL
$$

COZ041-046-047-076>085-087-088-231800-
...PIKES PEAK/PALMER DIVIDE AND SOUTHERN FOOTHILLS...

CITY           SKY/WX    TMP DP  RH WIND       PRES   REMARKS
COLO. SPRINGS  FAIR      73  41  31 S13G21    30.09F
A. F. ACADEMY  FAIR      69  40  35 S9        30.09F
SCHRIEVER AFB  NOT AVBL
CHEYENNE MTN   FAIR      69  39  33 SE14G22   30.07F
ELLICOTT         N/A    N/A N/A N/A SW12G22   30.08F
FALCON         NOT AVBL
FORT CARSON    FAIR      73  40  29 S10       30.06F
LIMON          FAIR      71  46  40 S15G24    30.06S
MONUMENT HILL  FAIR      70  34  26 S20       30.12F
CANON CITY     FAIR      72  43  35 S7        30.05F
WALSENBURG     FAIR      75  37  25 SE9       30.09S
TRINIDAD       FAIR      73  49  42 SW24G38   30.11S
$$

COZ042>045-048>051-090-091-231800-
...NORTHEAST COLORADO...

CITY           SKY/WX    TMP DP  RH WIND       PRES   REMARKS
GREELEY ARPT   FAIR      71  52  50 SE5       30.02F
AKRON          FAIR      69  55  60 S8        30.02S
BURLINGTON     FAIR      77  50  38 S25G39    30.03F
WRAY           FAIR      77  52  41 SW18      30.00R
YUMA           FAIR      70  41  35 S17       30.00S
STERLING       FAIR      70  54  56 SE3       29.97F
HOLYOKE        FAIR      77  54  44 SW16      29.98S
FORT MORGAN    FAIR      71  49  44 E6        30.02S
$$

COZ086-089-092>099-231800-
...SOUTHEAST COLORADO...

CITY           SKY/WX    TMP DP  RH WIND       PRES   REMARKS
PUEBLO         FAIR      74  46  36 S8        30.02F
LA JUNTA       FAIR      81  52  36 SW23G36   30.01F
LAMAR          FAIR      82  51  34 SW21G33   30.01S
SPRINGFIELD      N/A     75  56  51 S20       30.08S
$$




USA.gov is the U.S. government's official web portal to all federal, state and local government web resources and services.